Left ArrowRight Arrow

Hourly Observations for June 16, 2024

Temp ( °F °C ) Dew Point ( °F °C ) Humidity (%) Winds ( mph kmh ) Pressure ( in mb ) Visibility ( mi km ) Precip ( " mm )
12:55 am 00:55 Clear 79 26.2 72 22.2 79 79 S 3 6 30.00 1016 10 16 0.00 0.00
1:55 am 01:55 Clear 79 26.3 73 22.9 82 82 S 5 7 30.00 1016 10 16 0.00 0.00
2:55 am 02:55 Clear 80 26.4 74 23.4 84 84 S 3 6 30.00 1016 10 16 0.00 0.00
3:55 am 03:55 Clear 78 25.3 73 22.8 86 86 Calm 30.01 1016 10 16 0.00 0.00
4:55 am 04:55 Clear 75 24 73 22.6 92 92 Calm 30.01 1016 10 16 0.00 0.00
5:55 am 05:55 Clear 74 23.5 72 22.4 94 94 Calm 30.02 1017 10 16 0.00 0.00
6:55 am 06:55 Sunny 76 24.4 73 23 92 92 Calm 30.03 1017 10 16 0.00 0.00
7:55 am 07:55 Partly Cloudy 82 27.6 75 24 81 81 Calm 30.05 1018 10 16 0.00 0.00
8:55 am 08:55 Mostly Sunny 84 28.9 74 23.1 71 71 SE 5 7 30.08 1019 10 16 0.00 0.00
9:10 am 09:10 Mostly Cloudy 86 30 75 24 70 70 ESE 8 13 30.08 1019 10 16 0.00 0.00
9:25 am 09:25 Partly Cloudy 86 30 73 23 66 66 ESE 9 15 30.08 1019 10 16 0.00 0.00
9:55 am 09:55 Partly Cloudy 84 29.1 73 22.8 69 69 SE 9 15 30.09 1019 10 16 0.00 0.00
10:40 am 10:40 Mostly Cloudy 88 31 72 22 59 59 ESE 8 13 30.10 1019 10 16 0.00 0.00
10:55 am 10:55 Mostly Cloudy 89 31.4 70 21.2 55 55 E 12 19 30.10 1019 10 16 0.00 0.00
11:10 am 11:10 Partly Cloudy 88 31 70 21 55 55 E 9 15 30.11 1020 10 16 0.00 0.00
11:55 am 11:55 Partly Cloudy 87 30.8 72 22.1 60 60 ESE 12 19 30.10 1019 10 16 0.00 0.00
12:55 pm 12:55 Mostly Cloudy 89 31.8 72 22.2 57 57 SE 8 13 30.10 1019 10 16 0.00 0.00
1:55 pm 13:55 Mostly Cloudy 89 31.8 71 21.9 56 56 E 12 19 30.09 1019 10 16 0.00 0.00
2:55 pm 14:55 Mostly Sunny 91 32.6 69 20.5 49 49 E 14 22 30.08 1019 10 16 0.00 0.00
3:55 pm 15:55 Sunny 90 32 66 18.9 46 46 SE 15 24 30.07 1018 10 16 0.00 0.00
4:55 pm 16:55 Sunny 89 31.4 71 21.5 56 56 SE 12 19 30.07 1018 10 16 0.00 0.00
5:55 pm 17:55 Sunny 88 30.9 71 21.6 58 58 SE 13 20 30.07 1018 10 16 0.00 0.00
6:55 pm 18:55 Sunny 86 30 73 22.7 65 65 ESE 12 19 30.07 1018 10 16 0.00 0.00
7:55 pm 19:55 Sunny 84 29 73 22.7 69 69 SE 12 19 30.08 1019 10 16 0.00 0.00
8:55 pm 20:55 Partly Cloudy 83 28.2 73 22.9 73 73 SE 8 13 30.08 1019 10 16 0.00 0.00
9:15 pm 21:15 Clear 82 28 73 23 74 74 SE 5 7 30.08 1019 10 16 0.00 0.00
9:55 pm 21:55 Clear 82 27.7 74 23.3 77 77 ESE 6 9 30.08 1019 10 16 0.00 0.00
10:55 pm 22:55 Clear 81 27.2 75 23.8 82 82 Calm 30.09 1019 10 16 0.00 0.00
11:55 pm 23:55 Partly Cloudy 81 27.1 75 23.9 83 83 E 5 7 30.10 1019 10 16 0.00 0.00

Powered by Vaisala Xweather